Regional Weather Roundup
Issued by NWS

Home | Current Version | Previous Version | Text Only | Print | Product List | Glossary Off
Versions: 1 2 3 4 5 6 7 8 9 10 11 12 13 14 15 16 17 18 19 20 21 22 23 24 25 26 27 28 29 30 31 32 33 34 35 36 37 38 39 40 41 42 43 44 45 46 47 48 49 50

000
ASUS43 KLSX 230910
RWRMO

WEATHER SUMMARY FOR MISSOURI
NATIONAL WEATHER SERVICE SPRINGFIELD MO
400 AM CDT THU MAR 23 2017

NOTE: "FAIR" INDICATES FEW OR NO CLOUDS BELOW 12,000 FEET WITH NO
       SIGNIFICANT WEATHER AND/OR OBSTRUCTIONS TO VISIBILITY.
       CURRENT SKY AND/OR WEATHER CONDITIONS ARE NOT AVAILABLE FOR
       CHILLICOTHE AND FARMINGTON.

MOZ001>031-035>038-043-044-053-054-231000-
...NORTHERN AND WESTERN MISSOURI...

CITY           SKY/WX    TMP DP  RH WIND       PRES   REMARKS
KANSAS CTY INT CLOUDY    50  27  40 SE15      30.11F
KANSAS C DTWN  CLOUDY    52  27  38 SE10      30.11F
LEE`S SUMMIT   CLOUDY    51  29  42 SE10      30.13F
ST JOSEPH      CLOUDY    50  28  42 SE7       30.12F
CHILLICOTHE      N/A     47  22  37 SE12G20   30.17F
KIRKSVILLE     CLOUDY    43  19  38 SE15      30.22F

$$
MOZ066>068-077>081-088>096-101>105-231000-
...SOUTHWEST MISSOURI...

CITY           SKY/WX    TMP DP  RH WIND       PRES   REMARKS
SPRINGFIELD    CLOUDY    50  29  44 SE21      30.14F
JOPLIN         CLOUDY    53  38  56 SE13G24   30.10F
BRANSON        CLOUDY    46  32  57 SE12      30.21S

$$
MOZ032>034-039>042-045>050-055>058-069>072-231000-
...CENTRAL MISSOURI...

CITY           SKY/WX    TMP DP  RH WIND       PRES   REMARKS
COLUMBIA       CLOUDY    45  24  43 SE14      30.21F
JEFFERSON CITY CLOUDY    48  25  40 E13       30.23F
ROLLA          CLOUDY    46  24  42 SE9       30.22F
SEDALIA        CLOUDY    50  26  39 SE9       30.19F
WHITEMAN AFB   CLOUDY    50  26  39 SE9       30.15F
WARRENSBURG    CLOUDY    50  27  40 E9        30.15F
OSAGE BEACH    CLOUDY   N/A N/A N/A SE7       30.21F

$$
MOZ051-052-059>065-231000-
...EAST CENTRAL MISSOURI...

CITY           SKY/WX    TMP DP  RH WIND       PRES   REMARKS
ST LOUIS INTL  CLOUDY    44  20  38 SE13      30.30F
SPIRIT OF STL  CLOUDY    44  21  40 SE6       30.30F
ST CHARLES     CLOUDY    42  21  43 MISG      30.31S

$$
MOZ072>076-082>087-097>100-106>115-231000-
...SOUTH CENTRAL AND SOUTHEAST MISSOURI...

CITY           SKY/WX    TMP DP  RH WIND       PRES   REMARKS
CAPE GIRARDEAU CLOUDY    45  22  40 E8        30.30F
FARMINGTON     CLOUDY    44  20  38 SE7       30.28F
POPLAR BLUFF   CLOUDY    46  30  53 NE6       30.29F
WEST PLAINS    CLOUDY    47  24  40 SE7       30.24F

$$



USA.gov is the U.S. government's official web portal to all federal, state and local government web resources and services.